Home > Weather > Richmond > Past weeks

Flag for Canada Weather for the Past 2 Weeks in Richmond, British Columbia, Canada

Now
41 °F

Passing clouds.


Feels Like: 38 °F
Forecast: 41 / 47 °F
Wind: 5 mph from Northwest

Location: Vancouver International Airport

Current Time: Feb 6, 2016 at 5:46:59 AM

Latest Report: Feb 6, 2016 at 5:00 AM


Visibility: 15 mi

Pressure: 30.28 "Hg

Humidity: 87%

Dew point: 37 °F

Location of RichmondLocation

Historic Weather in Richmond — Graph

°F

Richmond Temperature Yesterday

Maximum temperature yesterday: 50 °F (at 11:00 AM)
Minimum temperature yesterday: 45 °F (at 1:00 AM)
Average temperature yesterday: 47 °F

High & Low Weather Summary for the Past Weeks

 TemperatureHumidityPressure
High54 °F (Jan 27, 10:00 AM)100% (Jan 22, 9:52 AM)30.36 "Hg (Jan 22, 9:52 AM)
Low36 °F (Feb 1, 3:45 AM)62% (Jan 28, 1:00 PM)29.57 "Hg (Jan 22, 4:00 AM)
Average44 °F87%30.03 "Hg
* Reported Jan 22 4:00 AM — Feb 6 4:00 AM, Richmond, Weather by CustomWeather, © 2016

Note: Actual official high and low records may vary slightly from our data, if they occured in-between our weather recording intervals... More about our weather records

Advertising

Richmond Weather History for the Previous 24 Hours

 ConditionsComfort  
Time TempWeatherWind HumidityBarometerVisibility
4:00 AM
Sat, Feb 6
45 °FPassing clouds.10 mph81%30.25 "Hg15 mi
3:00 AM41 °FPartly cloudy.2 mph87%30.23 "Hg15 mi
2:00 AM43 °FPassing clouds.2 mph81%30.19 "Hg15 mi
1:00 AM43 °FPassing clouds.3 mph87%30.17 "Hg15 mi
12:00 AM45 °FPassing clouds.10 mph76%30.14 "Hg15 mi
11:00 PM
Fri, Feb 5
45 °FMostly cloudy.13 mph81%30.08 "Hg15 mi
10:00 PM45 °FOvercast.13 mph81%30.01 "Hg15 mi
9:00 PM46 °FMostly cloudy.17 mph87%29.93 "Hg15 mi
8:00 PM48 °FPartly cloudy.20 mph82%29.91 "Hg15 mi
7:00 PM48 °FPassing clouds.13 mph82%29.89 "Hg15 mi
6:00 PM48 °FPartly cloudy.17 mph82%29.87 "Hg10 mi
5:00 PM48 °FLight rain. More clouds than sun.22 mph82%29.89 "Hg8 mi
4:00 PM48 °FLight rain. More clouds than sun.9 mph82%29.90 "Hg8 mi
3:00 PM48 °FLight rain. Fog.16 mph82%29.91 "Hg5 mi
2:00 PM48 °FLight rain. More clouds than sun.15 mph76%29.95 "Hg8 mi
1:00 PM48 °FLight rain. More clouds than sun.17 mph76%30.00 "Hg8 mi
12:00 PM50 °FLight rain. Mostly cloudy.15 mph71%30.03 "Hg15 mi
11:00 AM50 °FLight rain. Mostly cloudy.17 mph67%30.05 "Hg15 mi
10:00 AM48 °FLight rain. Mostly cloudy.13 mph76%30.09 "Hg12 mi
9:00 AM46 °FLight rain. Mostly cloudy.9 mph82%30.12 "Hg15 mi
8:00 AM45 °FLight rain. Mostly cloudy.10 mph87%30.14 "Hg15 mi
7:00 AM45 °FMostly cloudy.9 mph87%30.16 "Hg15 mi
6:00 AM45 °FMostly cloudy.5 mph87%30.19 "Hg15 mi
5:00 AM46 °FMostly cloudy.8 mph82%30.20 "Hg15 mi
Weather by CustomWeather, © 2016

See weather overviewHow to use our weather pages